Regional Weather Roundup
Issued by NWS Cleveland, OH

Home | Current Version | Previous Version | Graphics & Text | Print | Product List | Glossary On
Versions: 1 2 3 4 5 6 7 8 9 10 11 12 13 14 15 16 17 18 19 20 21 22 23 24 25 26 27 28 29 30 31 32 33 34 35 36 37 38 39 40 41 42 43 44 45 46 47 48 49 50
537
ASUS41 KCLE 030902
RWRCLE
OHIO REGIONAL WEATHER ROUNDUP
NATIONAL WEATHER SERVICE CLEVELAND, OH
400 AM EST SAT DEC 03 2016

NOTE: "FAIR" INDICATES FEW OR NO CLOUDS BELOW 12,000 FEET WITH NO
SIGNIFICANT WEATHER AND/OR OBSTRUCTIONS TO VISIBILITY.

OHZ001>008-015>018-024>027-034-035-043-044-031000-
   NORTHWEST OHIO

CITY           SKY/WX    TMP DP  RH WIND       PRES   REMARKS
DEFIANCE       NOT AVBL
FINDLAY        NOT AVBL
TOLEDO EXPRESS CLOUDY    35  31  85 W5        30.28S
TOLEDO EXEC    NOT AVBL
LIMA           CLOUDY    34  30  85 W7        30.29S WCI  28
$$

OHZ009>014-019>023-028>033-038-089-031000-
   NORTHEAST OHIO

CITY           SKY/WX    TMP DP  RH WIND       PRES   REMARKS
CLE-HOPKINS    CLOUDY    39  29  67 W8        30.27S
CLE-LAKEFRONT  NOT AVBL
CUY CO. ARPT   NOT AVBL
LORAIN-ELYRIA  NOT AVBL
ASHTABULA      NOT AVBL
AKRON-CANTON   CLOUDY    35  27  72 NW13      30.24R WCI  26
WOOSTER        CLOUDY    34  28  79 NW8       30.26  WCI  27
MANSFIELD      CLOUDY    31  27  85 W6        30.25S WCI  25
YOUNGSTOWN     CLOUDY    35  29  78 W9        30.20S WCI  28
$$

OHZ042-051>053-060>062-070>072-077>081-031000-
  SOUTHWEST OHIO

CITY           SKY/WX    TMP DP  RH WIND       PRES   REMARKS
CINC-COVINGTON CLOUDY    36  35  96 CALM      30.32R
CINC-LUNKEN    CLOUDY    37  36  96 SW3       30.36R
HAMILTON       CLOUDY    38  34  85 CALM      30.34S
DAYTON         CLOUDY    36  30  79 W6        30.30F
WRIGHT-PAT AFB CLOUDY    37  31  78 W5        30.30F
DAYTON GENERAL CLOUDY    37  30  75 SW3       30.30F
WILMINGTON     CLOUDY    36  30  79 W5        30.30
$$

OHZ036-037-039>041-045>050-054>059-063>069-073>076-082>088-031000-
  CENTRAL AND SOUTHEAST OHIO

CITY           SKY/WX    TMP DP  RH WIND       PRES   REMARKS
COLUMBUS       CLOUDY    34  29  82 NW3       30.29S
OSU AIRPORT    CLOUDY    34  31  88 SW3       30.29S
BOLTON FIELD   CLOUDY    35  32  88 W3        30.30S
RICKENBACK AFB CLOUDY    35  33  90 CALM      30.30S
NEWARK         CLEAR     27  24  89 W3        30.29
MARION         CLEAR     30  25  81 W3        30.28F
LANCASTER      CLOUDY    34  30  85 CALM      30.30S
ZANESVILLE     NOT AVBL
NEW PHILLY     NOT AVBL
$$




USA.gov is the U.S. government's official web portal to all federal, state and local government web resources and services.